Tracking 18957 objects as of 24-Jan-2018
HD Live streaming from Space Station
objects crossing your sky now

FENGYUN 1C DEB

Track FENGYUN 1C DEB now!
10-day predictions


NORAD ID: 30121
Int'l Code: 1999-025SA
Perigee: 814.8 km
Apogee: 883.4 km
Inclination: 102.2 °
Period: 101.8 minutes
Semi major axis: 7220 km
RCS: 0.0933 m2 (small)
Launch date: May 10, 1999
Source: People's Republic of China (PRC)
Launch site: Taiyaun Space Center, China (TSC)

Note: This is SATELLITE DEBRIS
aabbcc
Your satellite tracking list
Your tracking list is empty




NASA's NSSDC Master Catalog

Two Line Element Set (TLE):
1 30121U 99025SA  18023.54718514  .00000723  00000-0  40632-3 0  9991
2 30121 102.1754  12.0808 0047511 267.5567 209.4798 14.15102462566411
Source of the keplerian elements: AFSPC